Preview of NWS' New Version of Forecast
This preview is not operational and should not be used for support decisions.

Regional Weather Roundup (RWR)

Issued by National Weather Service (NWS)

                            
000
ASUS43 KMKX 180721
RWRWI 

WISCONSIN REGIONAL WEATHER ROUNDUP
NATIONAL WEATHER SERVICE MILWAUKEE/SULLIVAN WI
200 AM CDT SUN AUG 18 2019

NOTE: "FAIR" INDICATES FEW OR NO CLOUDS BELOW 12,000 FEET WITH NO
SIGNIFICANT WEATHER AND/OR OBSTRUCTIONS TO VISIBILITY.

WIZ001-002-006>008-014>016-023>028-180800-
NORTHWEST WISCONSIN
  
CITY           SKY/WX    TMP DP  RH WIND       PRES   REMARKS
SUPERIOR ARPT  FAIR      59  59 100 CALM      29.69F                  
ASHLAND        FAIR      55  55 100 CALM      29.73F FOG              
HAYWARD        FAIR      64  60  87 S5        29.74F                  
SIREN          MOCLDY    67  60  77 SE6       29.70F                  
CUMBERLAND     MOCLDY    64  59  82 SE6       29.70F                  
RICE LAKE      CLOUDY    67  51  55 SE7       29.73F                  
CHETEK         CLOUDY    66  63  90 SE7       29.73F                  
LADYSMITH      MOCLDY    64  63  94 SE5       29.77F                  
EAU CLAIRE     CLOUDY    70  63  78 SE10      29.71F                  
MENOMONIE      LGT RAIN  62  61  95 SE8       29.69F                  
NEW RICHMOND   LGT RAIN  67  62  86 SE6       29.68F                  
OSCEOLA        CLOUDY    67  66  94 SE5       29.71F                  
$$
 
WIZ003>005-009-010-017-018-180800-
NORTH CENTRAL WISCONSIN
  
CITY           SKY/WX    TMP DP  RH WIND       PRES   REMARKS
MANITOWISH WTR FAIR      61  61 100 SE6       29.79F                  
ARBOR VITAE    FAIR      64  61  89 S6        29.80F                  
WOODRUFF       FAIR      64  61  89 S6        29.80F                  
RHINELANDER    FAIR      63  59  87 S3        29.83F                  
EAGLE RIVER    FAIR      60  60 100 S5        29.82R                  
LAND O LAKES   FAIR      60  58  94 CALM      29.84R                  
PHILLIPS       FAIR      62  62  99 S5        29.78F                  
TOMAHAWK       MOCLDY    59  58  97 CALM      29.81F                  
MEDFORD        CLOUDY    62  60  94 S7        29.79S                  
MERRILL        FAIR      62  62  99 SE5       29.80S                  
$$
 
WIZ029-030-035-036-043>047-180800-
CENTRAL WISCONSIN
  
CITY           SKY/WX    TMP DP  RH WIND       PRES   REMARKS
WAUSAU         MOCLDY    63  62  97 CALM      29.80F                  
MOSINEE        CLOUDY    63  63 100 SE5       29.82F                  
MARSHFIELD     MOCLDY    65  62  90 S7        29.79F                  
STEVENS POINT  CLOUDY    63  62  99 CALM      29.82R                  
WAUPACA        FAIR      65  64  97 CALM      29.82S                  
WAUTOMA        MOCLDY    66  64  93 SE5       29.81F                  
WISC RAPIDS    MOCLDY    67  63  87 SE6       29.81S                  
CAMP DOUGLAS   MOCLDY    65  65 100 SW5       29.82R                  
$$
 
WIZ011>013-019>022-031-037>040-048>050-180800-
NORTHEAST WISCONSIN
  
CITY           SKY/WX    TMP DP  RH WIND       PRES   REMARKS
ANTIGO         FAIR      61  61 100 S6        29.84R                  
SHAWANO        FAIR      66  64  93 S3        29.80F                  
OCONTO         FAIR      66  66  99 S6        29.80F                  
STURGEON BAY   FAIR      66  66 100 S7        29.84F FOG              
GREEN BAY      CLOUDY    68  67  96 S6        29.83F FOG              
MANITOWOC      CLOUDY    70  69  97 S8        29.84F                  
APPLETON       NOT AVBL                                               
CLINTONVILLE   FAIR      64  62  94 S3        29.81F                  
OSHKOSH        FAIR      66  64  93 S6        29.81F FOG              
$$
 
WIZ032>034-041-042-053>061-180800-
SOUTHWEST WISCONSIN
  
CITY           SKY/WX    TMP DP  RH WIND       PRES   REMARKS
LA CROSSE      LGT RAIN  73  67  81 SE7       29.73F                  
SPARTA         LGT RAIN  65  64  94 E3        29.80F                  
VIROQUA        FAIR      68  68 100 SE7       29.77F                  
BOSCOBEL       LGT RAIN  71  68  90 VRB5      29.78F                  
PRAIRIE DU CHI FAIR      70  67  89 CALM      29.77F                  
PLATTEVILLE    CLOUDY    69  69 100 S3        29.83S                  
$$

WIZ056-057-062-063-064-067-068-180800-
SOUTH CENTRAL WISCONSIN
  
CITY           SKY/WX    TMP DP  RH WIND       PRES   REMARKS
REEDSBURG      FAIR      69  69 100 SW8       29.82R                  
BARABOO/DELLS  MOCLDY    69  67  93 SW8       29.81S                  
LONE ROCK      FAIR      71  67  87 W9        29.82F                  
MINERAL POINT  MOCLDY    70  70 100 MISG      29.84S                  
MADISON        FAIR      72  67  84 S9        29.82F                  
MIDDLETON      FAIR      71  22  16 S3        29.83F                  
WATERTOWN      FAIR      67  67 100 S3        29.83F                  
MONROE         MOCLDY    69  67  93 S10       29.84F                  
JANESVILLE     FAIR      68  68 100 CALM      29.85R FOG              
$$
 
WIZ051-052-058>065-066-070>072-180800-
SOUTHEAST WISCONSIN
  
CITY           SKY/WX    TMP DP  RH WIND       PRES   REMARKS
MILWAUKEE      FAIR      70  67  90 SE6       29.84F FOG              
WAUKESHA       FAIR      66  64  94 S3        29.86F                  
MILWAUKEE/TIMM FAIR      70  63  78 S5        29.84F                  
RACINE         FAIR      70  68  93 S5        29.87F                  
KENOSHA        FAIR      69  68  96 S3        29.85F                  
FOND DU LAC    FAIR      69  65  86 S6        29.82F FOG              
SHEBOYGAN      CLOUDY    69  68  96 S6        29.84F FOG              
WEST BEND      FAIR      66  66 100 CALM      29.84F FOG              
JUNEAU         FAIR      67  67  98 CALM      29.85S                  
$$

LSZ147-162-180800-
LAKE SUPERIOR
  
STATION/POSITION TIME  TEMP    WIND        PRES    WAVE
                       AIR SEA DIR/SP/G            HT/PER
                 (UTC) (F)     (DEG/KT/KT) (MB)    (FT/S)
W MID LAKE BUOY  0650   67 64  180/  8/  8 1005.7F   0
DEVILS ISLAND    0700   69     180/  8/ 10 1006.2F
SAXON HARBOR     0640   67     180/  3/  5 1006.4S
$$
 
LMZ867-665-643>646-180800-
LAKE MICHIGAN
  
STATION/POSITION TIME  TEMP    WIND        PRES    WAVE
                       AIR SEA DIR/SP/G            HT/PER
                 (UTC) (F)     (DEG/KT/KT) (MB)    (FT/S)
S GREEN BAY BUOY 0700   74 70  160/ 14/ 17 1009.7
N MID LAKE BUOY  0700   70     140/  8/ 10 1010.8
NORTHPORT PIER   0640   66     140/  2/  3 1010.5F
KEWAUNEE LAKESHO 0636   69     190/  5/  7 1010.0F
SHEBOYGAN LAKESH 0700   70     190/ 13/ 15 1010.2F
PORT WASHINGTON  0640   70     160/  4/  5 1011.5F
S MID LAKE BUOY  0700   73 73  170/  6/  6 1011.3
KENOSHA   LAKESH 0700   71     180/  4/  5 1010.5
$$

TC  - TEMPERATURE IN CELSIUS
VSB - VISIBILITY IN STATUTE MILES
WCI - WIND CHILL INDEX
HX  - HEAT INDEX